UOSAT 2 (UO-11)

Last updated on Mon Nov 03 2025 00:03:21 GMT+0000 (Coordinated Universal Time)

1 14781U 84021B 25306.50113257 .00001906 00000+0 20365-3 0 9990 2 14781 97.7745 270.1743 0006812 202.9394 157.1520 14.89932807223360
UTC large
Height (km)
Speed (km/s)
/
Latitude / Longitude
Inclination (degrees)
Orbital Period (minutes)
Azimuth
Elevation
Range (km)
Doppler Factor

Next 0 passes for location: London (51.5072 / 0.1276)

Sorry there are no passes over London.